Regional Weather Roundup
Issued by NWS

Home | Current Version | Previous Version | Graphics & Text | Print | Product List | Glossary On
Versions: 1 2 3 4 5 6 7 8 9 10 11 12 13 14 15 16 17 18 19 20 21 22 23 24 25 26 27 28 29 30 31 32 33 34 35 36 37 38 39 40 41 42 43 44 45 46 47 48 49 50
322
ASUS45 KBOU 291007
RWRCO

WEATHER ROUNDUP FOR COLORADO
NATIONAL WEATHER SERVICE DENVER/BOULDER CO
400 AM MDT MON AUG 29 2016

NOTE: "FAIR" INDICATES FEW OR NO CLOUDS BELOW 12000 FEET WITH NO
SIGNIFICANT WEATHER AND/OR OBSTRUCTIONS TO VISIBILITY.

COZ001>005-013-030-031-291100-
...NORTHWEST COLORADO...

CITY           SKY/WX    TMP DP  RH WIND       PRES   REMARKS
CRAIG          FAIR      46  39  76 E3        30.34R
HAYDEN         FAIR      52  36  54 E9        30.36R
MEEKER         FAIR      49  40  71 SE7       30.35S
MOUNT WERNER   NOT AVBL
STEAMBOAT SPGS FAIR      45  37  74 CALM      30.38S
WALDEN         FAIR      34  30  86 E6        30.48R WCI  29
$$

COZ006>008-011-291100-
...WEST CENTRAL VALLEYS...

CITY           SKY/WX    TMP DP  RH WIND       PRES   REMARKS
GRAND JUNCTION FAIR      57  45  64 SE9       30.25R
MONTROSE       FAIR      51  45  79 W3        30.33R
EAGLE          FAIR      50  46  87 CALM      30.41S
RIFLE          FAIR      53  48  83 SE5       30.31S
DELTA          NOT AVBL
NUCLA          FAIR     N/A N/A N/A E7        30.34S
$$

COZ017>023-064>068-291100-
...SOUTHWEST COLORADO...

CITY           SKY/WX    TMP DP  RH WIND       PRES   REMARKS
DURANGO        FAIR      46  40  79 NE5       30.34R
CORTEZ         FAIR      47  43  86 CALM      30.28F
PAGOSA SPRINGS CLOUDY    59  37  44 E5        30.43R THUNDER
TELLURIDE      FAIR      44  41  89 SE8       30.48S
WOLF CREEK PAS SNOW      34  34 100 NE28G35   30.66S VSB 1/4 WCI  20
$$

COZ009-010-012-014-032>034-037-058>063-291100-
...CENTRAL COLORADO...

CITY           SKY/WX    TMP DP  RH WIND       PRES   REMARKS
ASPEN          FAIR      46  41  82 NW3       30.42R
BUENA VISTA    FAIR      49  46  86 E5        30.49F
COPPER MTN     FAIR      46  32  57 SE3       30.67S
BERTHOUD PASS  FAIR      41  28  60 E13G22    30.69S
COTTONWOOD PAS MOCLDY    46  41  81 CALM      30.57F
GUNNISON       FAIR      46  39  76 N3        30.48R
KREMMLING      FAIR      43  37  81 CALM      30.46R
LEADVILLE      FAIR      39  37  92 E5        30.56S
MONARCH PASS   FOG       36  36 100 NE17      30.76R VSB<1/4
SALIDA         CLOUDY    52  48  85 W5        30.55F
SUNLIGHT       CLOUDY    45  37  76 W6        30.61S
WILKERSON PASS CLOUDY    37  36  93 E7        30.66F
$$

COZ069>075-291100-
...SAN LUIS VALLEY/SANGRE DE CRISTO MOUNTAINS...

CITY           SKY/WX    TMP DP  RH WIND       PRES   REMARKS
ALAMOSA        FAIR      50  47  89 NW14      30.42S
LA VETA PASS   FAIR      43  37  81 NW9G17    30.53F
SAGUACHE       CLOUDY    50  46  87 N8        30.46F
$$

COZ035-036-038>040-291100-
...NORTHERN COLORADO FRONT RANGE...

CITY           SKY/WX    TMP DP  RH WIND       PRES   REMARKS
DENVER INTL AP CLOUDY    63  46  54 SW21G29   30.25F
DMNS CITY PARK   N/A     64  45  50 SW10G25   30.27F
AURORA         MOCLDY    61  48  62 SW17G26   30.27F
FRONT RANGE AP NOT AVBL
ERIE MUNI ARPT FAIR      65  46  48 S9G21     30.25S
BOULDER MUN AP FAIR      63  43  48 S5        30.26R
CENTENNIAL     LGT RAIN  59  47  64 SW17      30.30F
BROOMFIELD     FAIR      63  45  51 S12       30.29S
FORT COLLINS   FAIR      61  46  59 SW6       30.24S
LONGMONT       FAIR      62  49  61 W3        30.26S
$$

COZ041-046-047-076>085-087-088-291100-
...PIKES PEAK/PALMER DIVIDE AND SOUTHERN FOOTHILLS...

CITY           SKY/WX    TMP DP  RH WIND       PRES   REMARKS
COLO. SPRINGS  MOCLDY    55  51  86 NW18      30.33F
A. F. ACADEMY  LGT RAIN  54  48  82 NW12      30.33F
SCHRIEVER AFB  NOT AVBL
ELLICOTT       NOT AVBL
FALCON         CLOUDY    53  48  84 NW14      30.36F
FORT CARSON    MOCLDY    58  46  64 NW15      30.29F
LIMON          FAIR      56  54  93 CALM      30.25S
MONUMENT HILL  CLOUDY    52  45  76 SW14G24   30.39S
TRINIDAD       FAIR      56  48  74 VRB5      30.31F
$$

COZ042>045-048>051-090-091-291100-
...NORTHEAST COLORADO...

CITY           SKY/WX    TMP DP  RH WIND       PRES   REMARKS
GREELEY ARPT   FAIR      63  48  59 SW6       30.23F
AKRON          FAIR      62  48  60 W10       30.23F
BURLINGTON     FAIR      61  57  87 S7        30.19F
WRAY           NOT AVBL
STERLING       FAIR      59  52  77 CALM      30.19R
HOLYOKE        FAIR      59  55  88 W6        30.16F
FORT MORGAN    FAIR      60  50  69 NW6       30.23F
$$

COZ086-089-092>099-291100-
...SOUTHEAST COLORADO...

CITY           SKY/WX    TMP DP  RH WIND       PRES   REMARKS
PUEBLO         FAIR      61  51  70 W13       30.24F
LA JUNTA       MOCLDY    66  52  60 W12       30.20R
LAMAR          FAIR      64  57  78 SW7       30.14F
SPRINGFIELD      N/A     63  59  87 W9        30.22R
$$




USA.gov is the U.S. government's official web portal to all federal, state and local government web resources and services.